CW9386 Weather Reports


time (UTC)temp
C
wind
direction
speed
KPH
gust
KPH
rain 1hr
cm
rain 24hr
cm
rain mn
cm
humidity
%
barometer
mb
20260508045647 16 14 3.2 8.0 0.00 0.00 0.00 30 1014.7
20260508044637 16 15 4.8 6.4 0.00 0.00 0.00 30 1014.6
20260508043646 16 15 1.6 4.8 0.00 0.00 0.00 29 1014.6
20260508042641 17 15 4.8 6.4 0.00 0.00 0.00 29 1014.7
20260508041640 17 14 1.6 3.2 0.00 0.00 0.00 29 1014.7
20260508035645 17 138 1.6 9.7 0.00 0.00 0.00 28 1014.4
20260508034638 17 121 4.8 9.7 0.00 0.00 0.00 27 1014.3
20260508033636 18 132 4.8 11.3 0.00 0.00 0.00 26 1014.3
20260508032649 18 105 6.4 9.7 0.00 0.00 0.00 25 1014.0
20260508031645 20 128 3.2 6.4 0.00 0.00 0.00 23 1014.0
20260508030642 20 126 0.0 4.8 0.00 0.00 0.00 21 1013.9
20260508025649 21 119 1.6 3.2 0.00 0.00 0.00 20 1013.8
20260508024645 22 128 3.2 4.8 0.00 0.00 0.00 18 1013.7
20260508023644 23 191 0.0 3.2 0.00 0.00 0.00 17 1013.6
20260508022637 23 24 3.2 4.8 0.00 0.00 0.00 16 1013.4
20260508021635 24 23 3.2 4.8 0.00 0.00 0.00 15 1013.4
20260508020634 25 205 0.0 0.0 0.00 0.00 0.00 15 1013.3
20260508015649 25 209 0.0 0.0 0.00 0.00 0.00 14 1013.2
20260508014646 26 96 0.0 3.2 0.00 0.00 0.00 13 1013.3
20260508013640 26 221 0.0 1.6 0.00 0.00 0.00 13 1013.2
20260508012637 26 221 1.6 4.8 0.00 0.00 0.00 13 1013.1
20260508011630 26 237 4.8 9.7 0.00 0.00 0.00 13 1013.2
20260508005639 27 276 3.2 9.7 0.00 0.00 0.00 12 1013.3
20260508004629 27 250 6.4 11.3 0.00 0.00 0.00 12 1013.3
20260508003640 27 263 0.0 4.8 0.00 0.00 0.00 12 1013.4
20260508002628 27 296 3.2 6.4 0.00 0.00 0.00 12 1013.4
20260508001642 27 327 3.2 12.9 0.00 0.00 0.00 13 1013.4
20260508000635 27 284 6.4 14.5 0.00 0.00 0.00 13 1013.5
20260507234645 27 186 6.4 14.5 0.00 0.00 0.00 13 1013.8
20260507233638 27 242 1.6 17.7 0.00 0.00 0.00 12 1013.7
20260507232631 27 303 11.3 16.1 0.00 0.00 0.00 12 1013.8
20260507231641 27 239 4.8 20.9 0.00 0.00 0.00 12 1013.8
20260507230637 28 252 9.7 27.4 0.00 0.00 0.00 12 1013.8
20260507225636 28 181 4.8 17.7 0.00 0.00 0.00 12 1014.0
20260507222641 27 286 4.8 20.9 0.00 0.00 0.00 12 1014.0
20260507221634 27 253 12.9 24.1 0.00 0.00 0.00 12 1014.3
20260507220626 27 246 6.4 20.9 0.00 0.00 0.00 13 1014.3
20260507215639 27 271 16.1 24.1 0.00 0.00 0.00 12 1014.4
20260507211637 28 257 4.8 12.9 0.00 0.00 0.00 13 1014.8
20260507205723 27 116 9.7 14.5 0.00 0.00 0.00 14 1015.0
20260507203732 27 11 4.8 12.9 0.00 0.00 0.00 14 1015.4
20260507202723 26 85 8.0 14.5 0.00 0.00 0.00 14 1015.7
20260507200724 27 341 8.0 19.3 0.00 0.00 0.00 14 1016.0
20260507195739 26 232 3.2 14.5 0.00 0.00 0.00 14 1016.3
20260507194731 26 348 14.5 24.1 0.00 0.00 0.00 14 1016.4
20260507193730 26 67 9.7 14.5 0.00 0.00 0.00 16 1016.6
20260507192723 26 80 0.0 14.5 0.00 0.00 0.00 16 1016.7
20260507191737 26 91 4.8 17.7 0.00 0.00 0.00 16 1016.9
20260507190735 26 77 9.7 20.9 0.00 0.00 0.00 17 1017.0
20260507185724 25 289 6.4 17.7 0.00 0.00 0.00 16 1017.2
20260507184721 25 140 12.9 17.7 0.00 0.00 0.00 17 1016.5
20260507183738 25 33 4.8 33.8 0.00 0.00 0.00 17 1016.6
20260507182730 25 81 3.2 14.5 0.00 0.00 0.00 17 1016.7
20260507181727 25 40 8.0 16.1 0.00 0.00 0.00 18 1016.8
20260507180739 25 346 6.4 17.7 0.00 0.00 0.00 19 1017.1
20260507175738 24 288 3.2 14.5 0.00 0.00 0.00 18 1017.1
20260507174722 24 313 1.6 14.5 0.00 0.00 0.00 20 1017.4
20260507173720 24 75 9.7 14.5 0.00 0.00 0.00 21 1017.4
20260507172730 24 166 6.4 16.1 0.00 0.00 0.00 21 1017.6
20260507171722 23 61 3.2 14.5 0.00 0.00 0.00 21 1017.6
20260507164727 23 101 9.7 17.7 0.00 0.00 0.00 22 1017.8
20260507161731 21 5 3.2 6.4 0.00 0.00 0.00 28 1018.3
20260507160737 20 329 1.6 8.0 0.00 0.00 0.00 29 1018.4
20260507155729 19 304 0.0 9.7 0.00 0.00 0.00 30 1018.7
20260507153721 18 355 4.8 11.3 0.00 0.00 0.00 33 1018.7
20260507152721 17 5 4.8 12.9 0.00 0.00 0.00 35 1018.7
20260507151736 16 13 4.8 12.9 0.00 0.00 0.00 36 1018.8
20260507145727 16 360 9.7 14.5 0.00 0.00 0.00 38 1019.0
20260507144724 15 348 6.4 9.7 0.00 0.00 0.00 39 1019.0
20260507142716 14 26 6.4 12.9 0.00 0.00 0.00 42 1019.2
20260507141716 13 27 4.8 12.9 0.00 0.00 0.00 42 1019.3
20260507140725 13 19 6.4 17.7 0.00 0.00 0.00 44 1019.2
20260507134734 12 342 12.9 17.7 0.00 0.00 0.00 45 1018.9
20260507132723 11 38 11.3 16.1 0.00 0.00 0.00 46 1018.7
20260507131733 11 39 12.9 17.7 0.00 0.00 0.00 46 1018.7
20260507130726 10 10 8.0 16.1 0.00 0.00 0.00 46 1018.7
20260507125720 10 22 8.0 16.1 0.00 0.00 0.00 47 1018.5
20260507124730 10 349 9.7 14.5 0.00 0.00 0.00 46 1018.5
20260507123725 9 10 8.0 16.1 0.00 0.00 0.00 45 1018.5
20260507122731 10 21 8.0 12.9 0.00 0.00 0.00 43 1018.4
20260507121724 10 28 6.4 14.5 0.00 0.00 0.00 41 1018.4
20260507120719 10 44 8.0 14.5 0.00 0.00 0.00 41 1018.3
20260507115731 9 55 8.0 9.7 0.00 0.00 0.00 40 1018.2
20260507114730 9 12 4.8 11.3 0.00 0.00 0.00 38 1018.2
20260507113730 9 67 8.0 12.9 0.00 0.00 0.00 36 1018.0
20260507112723 9 62 4.8 8.0 0.00 0.00 0.00 37 1017.9
20260507111719 9 54 1.6 12.9 0.00 0.00 0.00 37 1017.9
20260507110714 9 11 6.4 12.9 0.00 0.00 0.00 35 1017.8
20260507105730 10 13 6.4 12.9 0.00 0.00 0.00 32 1017.7
20260507102718 10 360 4.8 8.0 0.00 0.00 0.00 30 1017.6
20260507101727 10 18 4.8 9.7 0.00 0.00 0.00 29 1017.5
20260507100722 11 5 4.8 9.7 0.00 0.00 0.00 28 1017.5
20260507094729 12 349 3.2 8.0 0.00 0.00 0.00 25 1017.2
20260507092719 13 339 3.2 9.7 0.00 0.00 0.00 22 1017.2
20260507091715 14 355 6.4 12.9 0.00 0.00 0.00 21 1017.2
20260507090712 14 17 4.8 8.0 0.00 0.00 0.00 21 1017.2
20260507085723 14 49 1.6 3.2 0.00 0.00 0.00 22 1017.1
20260507083722 15 44 4.8 8.0 0.00 0.00 0.00 20 1017.1
20260507082711 15 42 4.8 8.0 0.00 0.00 0.00 21 1017.2
20260507081722 15 80 3.2 6.4 0.00 0.00 0.00 22 1017.2
20260507080718 15 69 1.6 6.4 0.00 0.00 0.00 20 1017.1
20260507074724 13 65 4.8 8.0 0.00 0.00 0.00 25 1017.1
20260507073722 13 82 3.2 6.4 0.00 0.00 0.00 24 1017.2
20260507072714 13 105 1.6 4.8 0.00 0.00 0.00 24 1017.3
20260507071722 14 73 1.6 6.4 0.00 0.00 0.00 24 1017.4
20260507070720 13 49 3.2 8.0 0.00 0.00 0.00 23 1017.5
20260507065721 13 82 3.2 4.8 0.00 0.00 0.00 25 1017.5
20260507064715 13 78 1.6 3.2 0.00 0.00 0.00 26 1017.5
20260507063715 13 86 1.6 6.4 0.00 0.00 0.00 27 1017.5
20260507062709 13 92 4.8 8.0 0.00 0.00 0.00 26 1017.5
20260507061722 13 89 3.2 9.7 0.00 0.00 0.00 26 1017.5
20260507060717 13 136 1.6 6.4 0.00 0.00 0.00 25 1017.5
20260507055709 13 138 0.0 9.7 0.00 0.00 0.00 25 1017.6
20260507053722 14 86 3.2 4.8 0.00 0.00 0.00 23 1017.5
20260507052715 15 84 4.8 4.8 0.00 0.00 0.00 23 1017.3